Regional Weather Roundup
Issued by NWS Tiyan, Guam

Current Version | Previous Version | Text Only | Print | Product List | Glossary On
Versions: 1 2 3 4 5 6 7 8 9 10 11 12 13 14 15 16 17 18 19 20 21 22 23 24 25 26 27
000
ASGM40 PGUM 220412
RWRGUM
WEATHER ROUNDUP FOR THE MARIANAS
NATIONAL WEATHER SERVICE TIYAN GU
200 PM CHST TUE AUG 22 2017

GUZ001>004-220500-
MARIANA ISLANDS-

CITY           SKY/WX    TMP DP  RH WIND       PRES   REMARKS
GUAM AIRPORT   SUNNY     90  75  62 E13       29.85F HX 100
ANDERSEN AFB   PTSUNNY   86  77  74 E12       29.91F HX  97
ROTA AIRPORT   PTSUNNY   84  75  74 E12       29.86F HX  92
TINIAN AP      PTSUNNY   88  79  74 E10       29.84S HX 102
SAIPAN AP      PTSUNNY   93  79  62 NE14      29.84F HX 110

$$





USA.gov is the U.S. government's official web portal to all federal, state and local government web resources and services.